User: anonymous   Login
Location: Oshawa
(43.9000°N, 78.8670°W)
Time: 07:33:56
(UTC-05:00)
Language:

Cosmos 1707 Rocket - Orbit

View from above orbital plane
View from above orbital plane
View from above satellite
View from above satellite

Ground track
Ground track

The orbit data is extracted from the following two-line orbital elements,

1 16327U 85113B   17054.53657220  .00000109  00000-0  10378-4 0  9997
2 16327  82.5352 198.6398 0019170   8.0305  37.5276 14.83341884685030
Epoch (UTC): 23 February 2017 12:52:39
Eccentricity: 0.0019170
inclination: 82.5352°
perigee height: 605 km
apogee height: 632 km
right ascension of ascending node: 198.6398°
argument of perigee: 8.0305°
revolutions per day: 14.83341884
mean anomaly at epoch: 37.5276°
orbit number at epoch: 68503

The dashed part of the orbit path shows where the satellite is in the earth's shadow,  

DLR